Jackpot

Texas Poker Multi Jackpot System

Kini Telah hadir Jackpot SUPER ROYAL FLUSH

Kini Telah hadir Jackpot 2000 (khusus table VIP keatas).

Ikutilah global jackpot yang tersedia di system kami, dengan system jackpot terbaru dan pertama di indonesia, anda dapat membeli jackpot dengan harga 100 rupiah saja dan menangkan hadiahnya hingga puluhan juta rupiah.

Jackpot bukanlah suatu keharusan untuk dibeli, namun kami memberikan suatu fitur tambahan untuk member tercinta dari www.mejavip.net.

Terdapat tiga pilihan harga jackpot yang bisa anda beli yaitu :100,500,1000 dan 2000(khusus table VIP Keatas) rupiah.

Hadiah dari Multi jackpot system www.mejavip.net

  1. full house x 10 harga jackpot yang anda beli.
      (contoh:anda membeli 1000 maka:1000 X10 = 10.000)
  2. four of kind x 250 harga jackpot yang anda beli
      (contoh:anda membeli 1000 maka:1000 X250 = 250.000)
  3. Straight flush x 1200
      (contoh:anda membeli 1000 maka:1000 X1200 = 1.200.000)
  4. Royal flush x 10000 harga jackpot yang anda beli
      (contoh:anda membeli 1000 maka:1000 X10000 = 10.000.000)
  5. SUPER ROYAL FLUSH x 30000 harga jackpot yang anda beli
      (contoh:anda membeli 1000 maka:1000 X30000 = 30.000.000)

Kondisi kartu

  1. full house adalah kondisi kartu dimana kartu anda dan kartu tengah dengan total 7 kartu bisa mendapatkan nilai 5 kartu dengan kombinasi 1 tris(three of kind) dan 1 pair, contoh 3 kartu 10 dan 2 kartu 5
  2. Four of kind adalah kondisi kartu dimana kartu anda dan kartu tengah dengan total 7 kartu bisa mendapatkan nilai 5 kartu dengan kombinasi 4 kartu yang sama jumlah dan 1 kartu apapun juga contoh anda mendapatkan 4 buah kartu angka 3 dan 1 kartu apapun.
  3. Staright flush adalah kondisi kartu dimana kartu anda dan kartu tengah dengan total 7 kartu bisa mendapatkan nilai 5 kartu dengan kombinasi seri / staright dengan kembang yang sama contoh : urutan kartu dari angka 5, 6, 7, 8 , 9 10 dengan kembang yg sama misalnya as hati
  4. Royal flush adalah kondisi kartu dimana kartu anda dan kartu tengah dengan total 7 kartu bisa mendapatkan nilai 5 kartu dengan kombinasi seri / staright dengan kembang yang sama tetapi kartu tersebut haruslah dimulai dari 10. contoh 10, Queen, Jack, King dan aces dengan kembang yang sama
  5. Super Royal flush adalah kondisi kartu dimana Kedua kartu anda digabung dengan 3 kartu pertama meja haruslah royal flush. contoh kartu anda 10,Queen kembang sama dan 3 kartu pertama meja adalah Jack, King dan aces dengan kembang yang sama

Demikian adalah penjelasan dari Multi Jackpot www.mejavip.net terima kasih dan selamat bermain salam hoki dari kami

Texas Poker Jackpot Winner

TOP SUPER ROYAL FLUSH
No.TanggalNamaPriceWin
122/09 02:24TAUN101Super Royal flush30,000,000
221/09 14:11ROYALJOZZSuper Royal flush60,000,000
321/09 13:43BA_ATIYOSuper Royal flush6,000,000
421/09 12:23B8EKCBJIYMSuper Royal flush3,000,000
521/09 08:32TUPO25Super Royal flush3,000,000
TOP ROYAL FLUSH
No.TanggalNamaPriceWin
122/09 02:56AMARASULI8Royal flush5,000,000
222/09 02:54CARIDIRoyal flush500,000
322/09 02:46BD5217E2Royal flush2,000,000
422/09 02:42CS_JPQQRoyal flush2,000,000
522/09 02:40LAZUARDY92Royal flush20,000,000
TOP STRAIGHT FLUSH
No.TanggalNamaPriceWin
122/09 03:07FAIR_998Straight Flush120,000
222/09 03:06DIGIT22Straight Flush600,000
322/09 03:05JOLCAKEPStraight Flush120,000
422/09 03:03FROG88Straight Flush2,400,000
522/09 03:02CHOKEN04Straight Flush2,400,000
LATEST JACKPOT
No.TanggalNamaPriceWin
122/09 03:07UJIERFull House5,000
222/09 03:07DEMPI46Full House10,000
322/09 03:07KINTEL33Full House10,000
422/09 03:07FAIR_998Straight Flush120,000
522/09 03:07NITADELISFull House10,000
622/09 03:07C4NDR445Full House5,000
722/09 03:07SHAZA17Full House1,000
822/09 03:07BHAKTI9966Full House2,000
922/09 03:07RIKAMELANIFull House2,000
1022/09 03:07PRINCESJUNFull House1,000
1122/09 03:07KACALFull House1,000
1222/09 03:07ECA67A5EFull House5,000
1322/09 03:07FN1212Full House5,000
1422/09 03:07ASEAK55Full House10,000
1522/09 03:07JELON9Full House1,000
1622/09 03:06ONEONEFour Of A Kind50,000
1722/09 03:06CHO1R3Full House2,000
1822/09 03:06NARTO19899Full House1,000
1922/09 03:06BLACKS82Full House10,000
2022/09 03:06P3TOT17Full House10,000
2122/09 03:06CUMI55Full House5,000
2222/09 03:06ADMIM9Full House2,000
2322/09 03:06ULTAH30Full House2,000
2422/09 03:06ONGKONG456Full House2,000
2522/09 03:06COTBADA1Full House2,000
2622/09 03:06VERA11AAFull House2,000
2722/09 03:06APALOSA04Full House5,000
2822/09 03:06MIPO66Full House2,000
2922/09 03:06LRSMEDANFull House10,000
3022/09 03:06CCKTANAM89Full House1,000
3122/09 03:06PAHMUD7Full House5,000
3222/09 03:06UMARBAKRI2Full House5,000
3322/09 03:06SUM1YA3Full House5,000
3422/09 03:06F198C6AFFull House2,000
3522/09 03:06MARBOR_01Full House2,000
3622/09 03:06BJM_Four Of A Kind50,000
3722/09 03:06BARBEKOOFull House2,000
3822/09 03:06TJ4H22Full House2,000
3922/09 03:06TOBEPLONGOFull House2,000
4022/09 03:06BARUAK88Full House20,000
4122/09 03:06RAJO_ANGEKFour Of A Kind250,000
4222/09 03:06A75JEIKE456Full House1,000
4322/09 03:06DWBTU10056Full House2,000
4422/09 03:06JALKAOFull House5,000
4522/09 03:06BLAKEKOKFull House5,000
4622/09 03:06XABRE890Full House2,000
4722/09 03:06JANOSKI123Four Of A Kind50,000
4822/09 03:06NYONGKIKI1Full House5,000
4922/09 03:06BDOL111Full House2,000
5022/09 03:06LOVE77777Full House2,000

Domino Multi Jackpot System

Ikutilah global jackpot yang tersedia di system kami, dengan system jackpot terbaru dan pertama di indonesia, anda dapat membeli jackpot dengan harga 100 rupiah saja dan menangkan hadiahnya hingga puluhan juta rupiah.

Jackpot bukanlah suatu keharusan untuk dibeli, namun kami memberikan suatu fitur tambahan untuk member tercinta dari www.mejavip.net.

Terdapat tiga pilihan harga jackpot yang bisa anda beli yaitu :100,500 dan 1000 rupiah.

Hadiah dari Multi jackpot system www.mejavip.net

  1. Murni Kecil x 50 harga jackpot yang anda beli.
      (contoh:anda membeli 1000 maka:1000 X 50 = 50.000)
  2. Murni Besar x 50 harga jackpot yang anda beli
      (contoh:anda membeli 1000 maka:1000 X 50 = 50.000)
  3. BALAK x 100 harga jackpot yang anda beli
      (contoh:anda membeli 1000 maka:1000 X 100 = 100.000)
  4. ENAM DEWA x 6666 harga jackpot yang anda beli
      (contoh:anda membeli 1000 maka:1000 X 6666 = 6.666.000)

Demikian adalah penjelasan dari Multi Jackpot www.mejavip.net terima kasih dan selamat bermain salam hoki dari kami

Domino Jackpot Winner

TOP ENAM DEWA
No.TanggalNamaPriceWin
122/09 01:09WISMA92murni enam3,333,000
222/09 01:08ABAY888888murni enam3,333,000
322/09 00:44AMSEO99murni enam3,333,000
422/09 00:43DYCK22murni enam6,666,000
521/09 23:35TEMPE444murni enam666,600
TOP BALAK
No.TanggalNamaPriceWin
122/09 03:05IBP89725balak10,000
222/09 03:04KUDA5777balak100,000
322/09 03:03RA81ESbalak100,000
422/09 03:00SUMMON99balak50,000
522/09 02:57GEGER057balak100,000
LATEST JACKPOT
No.TanggalNamaPriceWin
122/09 03:05IBP89725balak10,000
222/09 03:05SARFILO13murni besar5,000
322/09 03:04KUDA5777balak100,000
422/09 03:04SUMMON99murni besar25,000
522/09 03:03RA81ESbalak100,000
622/09 03:02LESYIANA66murni besar50,000
722/09 03:01FIAN566murni kecil50,000
822/09 03:01REVYmurni kecil5,000
922/09 03:00SUMMON99balak50,000
1022/09 03:00GARANmurni besar50,000
1122/09 02:59AZH26murni kecil50,000
1222/09 02:59J4LI8888murni kecil25,000
1322/09 02:59JPWINNER87murni besar50,000
1422/09 02:58SATRIASJTmurni besar50,000
1522/09 02:58NYALANDARmurni besar5,000
1622/09 02:57GEGER057balak100,000
1722/09 02:57EEHWEH16murni kecil50,000
1822/09 02:56PKPUmurni besar25,000
1922/09 02:56GATHUK99lucky9910,000
2022/09 02:56LONTAR50murni kecil25,000
2122/09 02:56SO1818murni kecil25,000
2222/09 02:55VIOLET72murni besar50,000
2322/09 02:55BULUKS66murni kecil5,000
2422/09 02:53YUGHA_77murni besar25,000
2522/09 02:53C20IRUL455lucky9950,000
2622/09 02:53DEWAFM9191murni kecil25,000
2722/09 02:53RH4848murni kecil5,000
2822/09 02:52BEBEC98murni kecil50,000
2922/09 02:51PKPUmurni kecil25,000
3022/09 02:51DADO378murni kecil25,000
3122/09 02:51WINDSGOmurni kecil50,000
3222/09 02:50BLEWO9murni kecil25,000
3322/09 02:49JANUARY20murni kecil50,000
3422/09 02:49LIMCIAWMEbalak100,000
3522/09 02:48GOGOJMLmurni besar25,000
3622/09 02:48GARANmurni kecil50,000
3722/09 02:47PAPIIDDbalak50,000
3822/09 02:47BOBBY7balak100,000
3922/09 02:47PTR80Tmurni besar50,000
4022/09 02:47J4TI87murni besar25,000
4122/09 02:47BONZZ007murni besar50,000
4222/09 02:46PENJOL1975murni kecil50,000
4322/09 02:46POND9899murni besar5,000
4422/09 02:46WDMULU99murni kecil50,000
4522/09 02:46LADANG02balak10,000
4622/09 02:44JONKUR02murni kecil25,000
4722/09 02:44BP888002murni kecil50,000
4822/09 02:44CACAY305murni besar50,000
4922/09 02:44HAER333lucky9950,000
5022/09 02:44VALETGM2balak100,000

Ceme Multi Jackpot System

Jackpot dilihat dari gabungan kartu pemain dengan kartu bandar. Bandar harus membeli jackpot sebanyak jumlah player yang sedang duduk. Sebagai contoh bila terdapat 3 pemain duduk bermain, dan bandar memutuskan untuk membeli jackpot Rp 1.000, maka pada periode tersebut bandar akan membeli jackpot sebanyak 3xRp1.000 = Rp3.000.

Jackpot bukanlah suatu keharusan untuk dibeli, namun kami memberikan suatu fitur tambahan untuk member tercinta dari www.mejavip.net.

Terdapat tiga pilihan harga jackpot yang bisa anda beli yaitu :100,500 dan 1000 rupiah.

Hadiah dari Multi jackpot system www.mejavip.net

  1. Murni Kecil x 50 harga jackpot yang anda beli.
      (contoh:anda membeli 1000 maka:1000 X 50 = 50.000)
  2. Murni Besar x 50 harga jackpot yang anda beli
      (contoh:anda membeli 1000 maka:1000 X 50 = 50.000)
  3. BALAK x 200 harga jackpot yang anda beli
      (contoh:anda membeli 1000 maka:1000 X 200 = 200.000)
  4. ENAM DEWA x 6666 harga jackpot yang anda beli
      (contoh:anda membeli 1000 maka:1000 X 6666 = 6.666.000)

Demikian adalah penjelasan dari Multi Jackpot www.mejavip.net terima kasih dan selamat bermain salam hoki dari kami

Ceme Jackpot Winner

TOP ENAM DEWA
No.TanggalNamaPriceWin
122/09 02:18SGANTENG76murni enam666,600
222/09 02:15FUUD1111murni enam666,600
322/09 01:13ALUCARD27murni enam6,666,000
422/09 01:12MRET27murni enam3,333,000
522/09 00:58MARZO11murni enam6,666,000
TOP BALAK
No.TanggalNamaPriceWin
122/09 03:06RIBET78balak100,000
222/09 03:06KOKOROKO28balak200,000
322/09 03:06OPERLAH12balak200,000
422/09 03:05ZIMI92balak200,000
522/09 03:05REGARD47balak100,000
LATEST JACKPOT
No.TanggalNamaPriceWin
122/09 03:07PALASARI2murni kecil50,000
222/09 03:07LEMKAmurni kecil50,000
322/09 03:07JAWA1976murni kecil50,000
422/09 03:06JOSSS1996murni kecil50,000
522/09 03:06LPUZOZP12Dmurni kecil5,000
622/09 03:06RIBET78balak100,000
722/09 03:06JOJO7070murni kecil5,000
822/09 03:06KOKOROKO28balak200,000
922/09 03:06OPERLAH12balak200,000
1022/09 03:05ROMILmurni kecil50,000
1122/09 03:05CIKKICIWmurni kecil25,000
1222/09 03:05B48R08945murni kecil5,000
1322/09 03:05HRP561978murni kecil50,000
1422/09 03:05SOVHIE2015murni kecil25,000
1522/09 03:05ZIMI92balak200,000
1622/09 03:05BONIALGOJAmurni besar50,000
1722/09 03:05ADHI542murni besar50,000
1822/09 03:05BOJESS01murni kecil50,000
1922/09 03:05QIJUMBRUTmurni kecil50,000
2022/09 03:05REGARD47balak100,000
2122/09 03:05LB999433balak20,000
2222/09 03:05THIO10murni kecil50,000
2322/09 03:05KEBOT0murni kecil5,000
2422/09 03:05THIO10murni kecil50,000
2522/09 03:05DXJFW63ISMmurni kecil50,000
2622/09 03:04DUL31murni kecil25,000
2722/09 03:04LONCOPPmurni kecil50,000
2822/09 03:04JEANY766murni kecil50,000
2922/09 03:04TUTURU12murni kecil50,000
3022/09 03:04IBI766murni besar50,000
3122/09 03:04GERNImurni besar50,000
3222/09 03:04IBI766murni besar50,000
3322/09 03:04C72B5289murni besar50,000
3422/09 03:04NOO9murni kecil50,000
3522/09 03:04C4PL1Nmurni kecil50,000
3622/09 03:04CIMURAH890balak200,000
3722/09 03:04XX9XXbalak200,000
3822/09 03:04PENJOL99murni kecil50,000
3922/09 03:04CHUEQ88murni kecil5,000
4022/09 03:04BONIALGOJAmurni kecil50,000
4122/09 03:04DB88A371murni kecil50,000
4222/09 03:04OWWOWWbalak20,000
4322/09 03:04LAWAK88murni besar50,000
4422/09 03:04BILQISS99murni besar50,000
4522/09 03:04MBOISBOSmurni besar50,000
4622/09 03:04NANAMIKANZmurni kecil50,000
4722/09 03:04CEWELIARmurni kecil50,000
4822/09 03:03APRILIAN88murni kecil50,000
4922/09 03:03RIZKI29murni kecil25,000
5022/09 03:03APUEI2murni besar50,000